Waarnemingen

Advertentie
Mijn weer
Charleville, Frankrijk (7075): temperatuur & dauwpunt: 20.09.2017 01:00:00 - 26.09.2017 01:00:00 (CEST)Charleville, Frankrijk (7075): temperatuur 5cm: 20.09.2017 01:00:00 - 26.09.2017 01:00:00 (CEST)Charleville, Frankrijk (7075): temperatuur -20cm & temperatuur -100cm: 20.09.2017 01:00:00 - 26.09.2017 01:00:00 (CEST)Charleville, Frankrijk (7075): windsnelheid & windstoten: 20.09.2017 01:00:00 - 26.09.2017 01:00:00 (CEST)Charleville, Frankrijk (7075): windrichting: 20.09.2017 01:00:00 - 26.09.2017 01:00:00 (CEST)Charleville, Frankrijk (7075): luchtdruk: 20.09.2017 01:00:00 - 26.09.2017 01:00:00 (CEST)Charleville, Frankrijk (7075): zicht: 20.09.2017 01:00:00 - 26.09.2017 01:00:00 (CEST)Charleville, Frankrijk (7075): Zonneschijnduur: 20.09.2017 01:00:00 - 26.09.2017 01:00:00 (CEST)Charleville, Frankrijk (7075): neerslag: 20.09.2017 01:00:00 - 26.09.2017 01:00:00 (CEST)
Datum & Tijd tt [°C] td [°C] tt 5cm [°C] tt -20cm [°C] tt -100cm [°C] ff [km/u] ff [kn] fx [km/u] fx [kn] dd ppp [hPa] vv [km] sd [min] rr [mm]
26.09.2017 01:00:00 8,2 7,9 5,2 15,3 15,5 2 1 4 2 NNW 1020,9 0,3 0 0,0
26.09.2017 00:00:00 8,8 8,3 6,1 15,3 15,5 1 1 4 2 W 1020,7 0,6 0 0,0
25.09.2017 23:00:00 10,1 9,8 8,2 15,3 15,5 3 1 4 2 Z 1020,4 3,9 0 0,0
25.09.2017 22:00:00 10,0 9,4 7,4 15,3 15,5 1 1 4 2 ZZO 1020,3 0,4 0 0,0
25.09.2017 21:00:00 10,8 9,1 8,2 15,3 15,5 1 1 4 2 W 1020,1 6 0 0,0
25.09.2017 20:00:00 13,2 11,8 9,6 15,2 15,5 2 1 5 3 ZO 1019,7 19 0 0,0
25.09.2017 19:00:00 16,6 12,7 13,5 15,1 15,5 1 1 5 3 OZO 1019,1 20 29 0,0
25.09.2017 18:00:00 20,3 11,8 20,4 14,9 15,5 5 3 14 8 ZZO 1018,5 20 41 0,0
25.09.2017 17:00:00 20,6 10,4 22,2 14,8 15,5 10 5 18 10 ZZO 1018,4 20 58 0,0
25.09.2017 16:00:00 20,9 10,7 24,9 14,6 15,5 11 6 22 12 ZO 1018,3 20 60 0,0
25.09.2017 15:00:00 20,8 10,0 24,7 14,5 15,5 13 7 24 13 ZZO 1018,4 17 60 0,0
25.09.2017 14:00:00 19,9 10,3 24,3 14,4 15,5 13 7 25 14 OZO 1018,7 20 60 0,0
25.09.2017 13:00:00 18,7 11,0 24,9 14,3 15,5 15 8 22 12 OZO 1019,2 20 60 0,0
25.09.2017 12:00:00 17,3 11,6 22,9 14,3 15,5 7 4 17 9 ZO 1019,6 18 60 0,0
25.09.2017 11:00:00 15,3 12,8 18,5 14,4 15,5 3 1 6 3 OZO 1020,0 18 60 0,0
25.09.2017 10:00:00 9,8 9,8 9,9 14,5 15,5 2 1 8 4 W 1020,4 12 60 0,0
25.09.2017 09:00:00 6,3 6,3 4,4 14,6 15,5 2 1 4 2 NNW 1020,8 0,6 49 0,0
25.09.2017 08:00:00 4,0 4,0 2,6 14,7 15,5 1 1 5 3 NNO 1021,0 0,5 4 0,0
25.09.2017 07:00:00 4,4 4,4 2,9 14,8 15,5 1 1 7 4 W 1020,8 0,1 0 0,0
25.09.2017 06:00:00 4,2 4,1 2,6 14,9 15,5 1 1 5 3 ZZW 1020,9 0,5 0 0,0
25.09.2017 05:00:00 4,6 4,5 3,6 15,0 15,5 1 1 8 4 ZZO 1021,0 0,2 0 0,0
25.09.2017 04:00:00 4,9 4,8 3,0 15,0 15,5 1 1 3 2 ZO 1021,2 1,4 0 0,0
25.09.2017 03:00:00 4,7 4,6 2,8 15,2 15,6 1 1 3 2 ZZO 1021,7 0,2 0 0,0
25.09.2017 02:00:00 5,8 5,7 2,7 15,2 15,5 2 1 5 3 WNW 1021,7 0,4 0 0,0
25.09.2017 01:00:00 5,3 5,0 2,6 15,3 15,5 1 1 4 2 ZW 1022,0 0,4 0 0,0
25.09.2017 00:00:00 6,7 6,3 3,4 15,4 15,6 1 1 4 2 NW 1022,1 8 0 0,0
24.09.2017 23:00:00 7,4 6,8 4,1 15,4 15,6 1 1 5 3 O 1022,0 0,2 0 0,0
24.09.2017 22:00:00 8,6 7,5 4,6 15,4 15,6 3 2 5 3 WNW 1021,8 20 0 0,0
24.09.2017 21:00:00 10,1 8,7 6,6 15,4 15,6 3 1 4 2 ZO 1021,7 12 0 0,0
24.09.2017 20:00:00 12,3 10,4 9,1 15,3 15,6 3 2 5 3 O 1021,2 5 6 0,0
24.09.2017 19:00:00 17,4 11,2 14,8 15,2 15,6 4 2 13 7 ZO 1020,6 3,8 54 0,0
24.09.2017 18:00:00 20,6 10,4 20,8 15,0 15,6 8 4 18 10 ZO 1020,4 7 60 0,0
24.09.2017 17:00:00 21,1 9,7 24,3 14,8 15,5 8 5 19 10 ZO 1020,6 20 60 0,0
24.09.2017 16:00:00 21,6 8,8 25,7 14,7 15,6 8 4 20 11 ZZW 1020,7 19 60 0,0
24.09.2017 15:00:00 21,4 9,9 24,6 14,6 15,6 8 4 22 12 ZZO 1020,9 20 60 0,0
24.09.2017 14:00:00 19,7 10,1 23,4 14,5 15,6 13 7 22 12 O 1021,4 20 50 0,0
24.09.2017 13:00:00 18,8 12,3 23,5 14,4 15,6 10 5 17 9 O 1021,7 20 60 0,0
24.09.2017 12:00:00 17,1 12,4 21,5 14,4 15,6 8 5 14 8 OZO 1022,0 14 49 0,0
24.09.2017 11:00:00 14,8 11,9 18,3 14,4 15,6 4 2 11 6 ZZO 1022,5 12 60 0,0
24.09.2017 10:00:00 10,8 10,8 9,0 14,5 15,6 2 1 6 3 ZO 1022,7 11 60 0,0
24.09.2017 09:00:00 5,8 5,8 4,9 14,6 15,6 2 1 4 2 W 1022,9 0,5 29 0,0
24.09.2017 08:00:00 4,6 4,6 3,5 14,7 15,6 1 1 4 2 N 1022,7 0,2 0 0,0
24.09.2017 07:00:00 4,2 4,1 3,4 14,8 15,6 1 1 5 3 W 1022,6 0,5 0 0,0
24.09.2017 06:00:00 4,5 4,4 4,0 14,9 15,6 1 1 4 2 O 1022,1 0,2 0 0,0
24.09.2017 05:00:00 5,0 4,9 3,6 15,0 15,6 2 1 6 3 WNW 1022,3 0,1 0 0,0
24.09.2017 04:00:00 4,8 4,7 2,5 15,1 15,6 1 1 3 2 ZZW 1022,3 0,8 0 0,0
24.09.2017 03:00:00 4,6 4,3 2,5 15,2 15,6 1 1 5 3 WNW 1022,7 1,4 0 0,0
24.09.2017 02:00:00 5,4 5,1 2,3 15,3 15,6 1 0 2 1 NW 1022,6 0,4 0 0,0
24.09.2017 01:00:00 6,2 5,9 2,9 15,4 15,6 1 0 6 3 W 1022,5 12 0 0,0
24.09.2017 00:00:00 7,2 6,6 3,5 15,4 15,6 3 1 5 3 WNW 1022,6 14 0 0,0
23.09.2017 23:00:00 7,8 7,4 4,1 15,4 15,6 3 1 7 4 WZW 1022,5 13 0 0,0
23.09.2017 22:00:00 8,4 7,5 5,5 15,5 15,6 3 1 6 3 WNW 1022,6 15 0 0,0
23.09.2017 21:00:00 9,5 8,4 6,8 15,4 15,6 2 1 5 3 WNW 1022,4 16 0 0,0
23.09.2017 20:00:00 11,3 9,0 8,0 15,4 15,6 1 1 10 5 WZW 1021,9 16 0 0,0
23.09.2017 19:00:00 14,7 10,3 12,5 15,3 15,6 4 2 16 8 WNW 1021,8 20 0 0,0
23.09.2017 18:00:00 17,4 11,7 17,0 15,2 15,6 5 3 10 6 N 1021,4 20 0 0,0
23.09.2017 17:00:00 18,7 11,3 19,7 15,0 15,6 6 3 10 5 N 1021,5 19 0 0,0
23.09.2017 16:00:00 19,0 9,7 21,2 14,8 15,6 4 2 14 8 WZW 1021,9 20 0 0,0
23.09.2017 15:00:00 20,5 10,9 23,7 14,6 15,6 4 2 15 8 OZO 1022,3 20 54 0,0
23.09.2017 14:00:00 19,4 10,9 26,0 14,5 15,6 5 3 15 8 W 1022,7 20 60 0,0
23.09.2017 13:00:00 18,2 13,9 19,9 14,5 15,6 6 3 13 7 Z 1023,1 20 47 0,0
23.09.2017 12:00:00 14,5 14,5 16,2 14,5 15,6 2 1 8 4 NO 1023,7 20 44 0,0
23.09.2017 11:00:00 11,3 11,3 11,5 14,5 15,7 3 2 8 5 NW 1024,4 2,6 14 0,0
23.09.2017 10:00:00 9,2 9,2 8,9 14,6 15,7 1 1 7 4 ONO 1024,6 0,2 15 0,0
23.09.2017 09:00:00 7,0 7,0 7,4 14,6 15,7 5 3 9 5 WNW 1024,7 0,1 0 0,0
23.09.2017 08:00:00 6,5 6,5 6,9 14,7 15,7 5 3 7 4 WNW 1024,7 0,1 0 0,0
23.09.2017 07:00:00 6,3 6,3 6,9 14,7 15,7 5 3 8 4 WNW 1024,7 0,3 0 0,0
23.09.2017 06:00:00 6,5 6,5 7,0 14,8 15,7 4 2 6 3 W 1024,7 0,2 0 0,0
23.09.2017 05:00:00 6,5 6,5 6,8 14,8 15,7 4 2 6 3 NW 1024,5 0,2 0 0,0
23.09.2017 04:00:00 6,8 6,8 6,9 14,9 15,7 2 1 5 3 NW 1024,6 0,2 0 0,0
23.09.2017 03:00:00 6,9 6,8 6,3 15,0 15,7 1 1 5 3 NW 1024,7 0,2 0 0,0
23.09.2017 02:00:00 7,4 7,3 7,0 15,0 15,7 3 2 8 5 WNW 1024,4 0,2 0 0,0
23.09.2017 01:00:00 8,3 8,2 7,1 15,1 15,7 4 2 6 4 W 1024,1 0,1 0 0,0
23.09.2017 00:00:00 8,0 7,9 5,1 15,1 15,7 2 1 4 2 NW 1024,0 0,1 0 0,0
22.09.2017 23:00:00 8,6 8,2 5,3 15,1 15,7 1 1 4 2 W 1024,1 0,2 0 0,0
22.09.2017 22:00:00 10,1 9,3 6,0 15,1 15,7 2 1 4 2 WNW 1023,6 0,6 0 0,0
22.09.2017 21:00:00 11,7 10,3 8,8 15,0 15,7 3 2 6 3 W 1023,2 18 0 0,0
22.09.2017 20:00:00 13,5 10,7 9,9 15,0 15,7 3 1 11 6 W 1022,3 20 15 0,0
22.09.2017 19:00:00 17,7 12,6 16,7 14,9 15,7 8 5 14 8 W 1021,6 20 40 0,0
22.09.2017 18:00:00 18,2 12,2 18,8 14,8 15,7 9 5 21 11 W 1021,3 20 22 0,0
22.09.2017 17:00:00 18,2 11,7 19,8 14,6 15,7 9 5 19 10 W 1021,3 20 0 0,0
22.09.2017 16:00:00 18,7 11,0 21,6 14,5 15,7 12 6 21 11 WNW 1021,2 20 28 0,0
22.09.2017 15:00:00 18,1 11,6 20,9 14,4 15,7 8 5 15 8 WNW 1021,1 20 7 0,0
22.09.2017 14:00:00 17,5 11,1 21,9 14,4 15,7 5 3 14 7 WNW 1021,2 20 25 0,0
22.09.2017 13:00:00 15,7 11,5 19,6 14,3 15,7 4 2 9 5 WNW 1021,3 20 3 0,0
22.09.2017 12:00:00 13,5 11,7 13,8 14,3 15,7 3 2 10 5 ZO 1021,4 18 30 0,0
22.09.2017 11:00:00 10,1 9,8 10,7 14,4 15,8 2 1 5 3 O 1021,5 20 0 0,0
22.09.2017 10:00:00 8,1 8,1 7,3 14,4 15,8 5 3 7 4 OZO 1021,6 14 32 0,0
22.09.2017 09:00:00 5,9 5,9 6,4 14,5 15,8 3 1 8 4 NW 1021,6 1,8 16 0,0
22.09.2017 08:00:00 5,4 5,4 4,6 14,6 15,8 3 2 5 3 NNW 1021,1 0,4 9 0,0
22.09.2017 07:00:00 5,5 5,4 5,4 14,7 15,8 2 1 5 3 Z 1020,6 0,1 0 0,0
22.09.2017 06:00:00 5,8 5,7 5,8 14,7 15,8 1 0 4 2 ZZO 1020,6 0,1 0 0,0
22.09.2017 05:00:00 6,2 6,1 5,4 14,8 15,8 3 1 4 2 W 1020,6 0,3 0 0,0
22.09.2017 04:00:00 5,9 5,8 5,6 14,9 15,8 2 1 6 3 ZO 1020,3 0,2 0 0,0
22.09.2017 03:00:00 6,4 6,3 4,4 15,0 15,8 2 1 5 3 W 1020,7 0,5 0 0,0
22.09.2017 02:00:00 5,7 5,4 4,5 15,1 15,8 1 0 4 2 Z 1020,6 0,3 0 0,0
22.09.2017 01:00:00 6,9 6,6 4,1 15,1 15,8 1 1 4 2 W 1020,3 0,4 0 0,0
22.09.2017 00:00:00 6,8 6,2 4,1 15,2 15,9 0 0 3 2 ZW 1020,3 0,8 0 0,0
21.09.2017 23:00:00 8,0 7,4 5,3 15,2 15,8 1 0 3 2 WNW 1020,1 0,5 0 0,0
21.09.2017 22:00:00 9,7 9,1 6,2 15,2 15,8 1 0 4 2 WNW 1020,0 0,6 0 0,0
21.09.2017 21:00:00 10,5 9,4 7,7 15,1 15,8 1 0 3 2 Z 1019,6 4,4 0 0,0
21.09.2017 20:00:00 12,6 10,3 8,9 15,1 15,9 1 0 10 6 Z 1019,0 2,9 0 0,0
21.09.2017 19:00:00 14,7 11,3 13,8 15,0 15,8 7 4 15 8 OZO 1018,7 20 7 0,0
21.09.2017 18:00:00 17,2 10,8 17,6 14,8 15,8 10 5 19 10 OZO 1018,5 20 31 0,0
21.09.2017 17:00:00 18,1 10,5 18,7 14,7 15,8 9 5 23 13 OZO 1018,6 20 44 0,0
21.09.2017 16:00:00 18,3 9,9 18,9 14,5 15,8 9 5 19 10 ZZO 1018,9 20 32 0,0
21.09.2017 15:00:00 17,9 10,5 20,4 14,4 15,9 7 4 22 12 ZZO 1019,2 20 50 0,0
21.09.2017 14:00:00 17,7 10,6 23,0 14,3 15,8 11 6 21 12 ZO 1019,6 20 60 0,0
21.09.2017 13:00:00 16,4 11,1 21,2 14,2 15,8 8 4 23 12 ZO 1020,3 20 58 0,0
21.09.2017 12:00:00 14,4 10,6 17,3 14,2 15,8 8 4 14 8 OZO 1020,9 19 60 0,0
21.09.2017 11:00:00 11,8 10,0 14,8 14,3 15,9 9 5 14 8 O 1021,4 16 60 0,0
21.09.2017 10:00:00 8,8 8,8 7,4 14,3 15,9 3 1 8 4 O 1021,8 3,6 42 0,0
21.09.2017 09:00:00 5,7 5,7 4,5 14,4 15,9 1 1 4 2 O 1021,9 0,3 2 0,0
21.09.2017 08:00:00 4,1 4,1 3,9 14,5 15,9 2 1 4 2 ZO 1022,1 0,2 0 0,0
21.09.2017 07:00:00 4,1 4,1 3,6 14,6 15,9 1 1 3 2 ZO 1022,0 0,1 0 0,0
21.09.2017 06:00:00 4,1 4,0 3,5 14,7 15,9 1 1 3 2 NO 1021,9 0,3 0 0,0
21.09.2017 05:00:00 4,3 4,2 3,9 14,7 15,9 3 2 3 2 O 1022,2 0,3 0 0,0
21.09.2017 04:00:00 4,5 4,4 3,6 14,8 15,9 0 0 2 1 ZZO 1022,3 0,2 0 0,0
21.09.2017 03:00:00 4,7 4,6 3,2 15,0 15,9 1 1 4 2 N 1022,4 0,2 0 0,0
21.09.2017 02:00:00 5,0 4,9 2,7 15,0 15,9 1 1 4 2 WZW 1022,5 0,3 0 0,0
21.09.2017 01:00:00 5,2 5,1 3,0 15,1 15,9 1 1 4 2 ZO 1022,3 0,3 0 0,0
21.09.2017 00:00:00 5,4 5,1 2,9 15,1 15,9 1 1 2 1 O 1022,4 0,1 0 0,0
20.09.2017 23:00:00 6,3 6,0 3,1 15,2 15,9 1 1 4 2 ZZW 1022,3 0,2 0 0,0
20.09.2017 22:00:00 7,2 6,8 4,0 15,2 15,9 2 1 5 3 O 1022,3 1,5 0 0,0
20.09.2017 21:00:00 8,7 8,1 6,2 15,2 15,9 3 2 5 3 O 1022,3 5 0 0,0
20.09.2017 20:00:00 11,0 8,7 8,1 15,1 16,0 3 2 9 5 ZO 1021,9 13 18 0,0
20.09.2017 19:00:00 15,2 9,3 13,6 15,0 15,9 5 3 16 9 Z 1021,4 20 60 0,0
20.09.2017 18:00:00 16,3 9,2 17,3 14,9 15,9 8 4 17 9 ZZW 1021,6 20 55 0,0
20.09.2017 17:00:00 16,8 9,7 18,5 14,8 15,9 7 4 19 11 ZZW 1021,7 20 41 0,0
20.09.2017 16:00:00 15,5 8,9 17,1 14,7 15,9 9 5 19 10 WZW 1022,2 20 23 0,0
20.09.2017 15:00:00 14,6 9,6 16,9 14,6 15,9 9 5 19 10 ZW 1022,6 20 0 0,0
20.09.2017 14:00:00 14,3 9,5 17,9 14,6 15,9 9 5 23 13 WZW 1022,8 20 22 0,0
20.09.2017 13:00:00 14,6 10,8 16,1 14,5 16,0 9 5 22 12 WZW 1023,0 20 13 0,0
20.09.2017 12:00:00 13,2 10,2 15,2 14,5 15,9 6 4 18 10 WNW 1023,3 20 18 0,0
20.09.2017 11:00:00 11,4 10,1 14,1 14,5 16,0 4 2 10 5 NNW 1023,5 10 9 0,0
20.09.2017 10:00:00 10,6 10,4 10,1 14,6 16,0 4 2 8 5 ZO 1023,5 4,9 13 0,0
20.09.2017 09:00:00 8,9 8,8 8,8 14,6 16,0 3 2 8 4 ZW 1023,5 1,4 0 0,0
20.09.2017 08:00:00 8,4 8,3 4,5 14,7 16,0 1 1 4 2 N 1023,0 0,7 0 0,0
20.09.2017 07:00:00 7,7 6,9 5,1 14,7 16,0 6 3 8 4 OZO 1022,7 0,3 0 0,0
20.09.2017 06:00:00 9,6 9,5 8,8 14,8 16,0 4 2 10 5 WNW 1022,7 5 0 0,0
20.09.2017 05:00:00 9,0 8,9 8,2 14,8 16,0 3 2 8 4 ZW 1022,7 4,6 0 0,0
20.09.2017 04:00:00 7,9 7,8 5,0 14,9 16,0 8 4 9 5 NW 1022,8 1,9 0 0,0
20.09.2017 03:00:00 7,7 7,1 4,6 14,9 16,0 1 1 4 2 O 1022,8 0,1 0 0,0
20.09.2017 02:00:00 9,7 9,1 8,1 15,0 16,0 2 1 7 4 NNO 1022,7 4,1 0 0,0
20.09.2017 01:00:00 9,9 9,3 7,4 15,0 16,0 5 3 9 5 NW 1022,6 12 0 0,0

tt = temperatuur
td = dauwpunt
tt 5cm = temperatuur 5cm
tt -20cm = temperatuur -20cm
tt -100cm = temperatuur -100cm
ff = windsnelheid
fx = windstoten
dd = windrichting
ppp = luchtdruk
vv = zicht
sd = Zonneschijnduur
rr = neerslag

Weerstations in de omgeving